STARLINK-1400 (45700 NORAD) Tracking and Keplerian Element Data

This shows tracking and keplerian element data for the satellite.

Feedback or suggestion? Click here.




ElementValue
Catalog45700
NameSTARLINK-1400
Epoch Orbit1075
Epoch Day218.91667824
Epoch Year2020
RAAN221.2962
Inclination53
Eccentricity0.0001256
Argument of Perigee59.2244
Mean Anonmoly213.2329
Mean Motion15.6270798
Decay Rate0.00055787
L11 45700U 20035AV 20218.91667824 .00055787 00000-0 61197-3 0 9991
L22 45700 53.0000 221.2962 0001256 59.2244 213.2329 15.62707980 10750

Live tracking and technical data element details for STARLINK-1400 (NORAD 45700). STARLINK-1400 can be tracked NOW for your location showing map with azimuth and elevation plus other details from your city location.

Track the satellite on the map from your city or location and see movement details for azimuth, elevation, latitude, longitude, range, height, and movement on the map or in text.







IsCatalogInMostPopularTable: catalog: 45700, numindb: 16
Update: records affected: 1



GetName: 45700 STARLINK-1400

Hit Count: updated at: Sat, 08 Aug 2020 00:55:23 GMT